Index of /20260506/WXO-DD/model_gdps/15km/12/054
Name Last modified Size Description
Parent Directory -
20260506T12Z_MSC_GDPS_AbsoluteVorticity_IsbL-0200_LatLon0.15_PT054H.grib2 2026-05-06 18:38 1.2M
20260506T12Z_MSC_GDPS_AbsoluteVorticity_IsbL-0250_LatLon0.15_PT054H.grib2 2026-05-06 18:38 1.3M
20260506T12Z_MSC_GDPS_AbsoluteVorticity_IsbL-0500_LatLon0.15_PT054H.grib2 2026-05-06 18:38 1.5M
20260506T12Z_MSC_GDPS_AbsoluteVorticity_IsbL-0700_LatLon0.15_PT054H.grib2 2026-05-06 18:38 1.3M
20260506T12Z_MSC_GDPS_AbsoluteVorticity_IsbL-0850_LatLon0.15_PT054H.grib2 2026-05-06 18:38 1.6M
20260506T12Z_MSC_GDPS_AirTemp-Max_AGL-2m_LatLon0.15_PT054H.grib2 2026-05-06 18:38 742K
20260506T12Z_MSC_GDPS_AirTemp-Min_AGL-2m_LatLon0.15_PT054H.grib2 2026-05-06 18:38 789K
20260506T12Z_MSC_GDPS_AirTemp_AGL-120m_LatLon0.15_PT054H.grib2 2026-05-06 18:38 908K
20260506T12Z_MSC_GDPS_AirTemp_AGL-2m_LatLon0.15_PT054H.grib2 2026-05-06 18:38 1.0M
20260506T12Z_MSC_GDPS_AirTemp_AGL-40m_LatLon0.15_PT054H.grib2 2026-05-06 18:38 811K
20260506T12Z_MSC_GDPS_AirTemp_AGL-80m_LatLon0.15_PT054H.grib2 2026-05-06 18:38 916K
20260506T12Z_MSC_GDPS_AirTemp_IsbL-0001_LatLon0.15_PT054H.grib2 2026-05-06 18:38 672K
20260506T12Z_MSC_GDPS_AirTemp_IsbL-0005_LatLon0.15_PT054H.grib2 2026-05-06 18:38 699K
20260506T12Z_MSC_GDPS_AirTemp_IsbL-0010_LatLon0.15_PT054H.grib2 2026-05-06 18:38 703K
20260506T12Z_MSC_GDPS_AirTemp_IsbL-0020_LatLon0.15_PT054H.grib2 2026-05-06 18:38 725K
20260506T12Z_MSC_GDPS_AirTemp_IsbL-0030_LatLon0.15_PT054H.grib2 2026-05-06 18:38 843K
20260506T12Z_MSC_GDPS_AirTemp_IsbL-0050_LatLon0.15_PT054H.grib2 2026-05-06 18:38 885K
20260506T12Z_MSC_GDPS_AirTemp_IsbL-0100_LatLon0.15_PT054H.grib2 2026-05-06 18:38 961K
20260506T12Z_MSC_GDPS_AirTemp_IsbL-0150_LatLon0.15_PT054H.grib2 2026-05-06 18:38 1.0M
20260506T12Z_MSC_GDPS_AirTemp_IsbL-0175_LatLon0.15_PT054H.grib2 2026-05-06 18:38 1.0M
20260506T12Z_MSC_GDPS_AirTemp_IsbL-0200_LatLon0.15_PT054H.grib2 2026-05-06 18:38 1.0M
20260506T12Z_MSC_GDPS_AirTemp_IsbL-0225_LatLon0.15_PT054H.grib2 2026-05-06 18:38 1.0M
20260506T12Z_MSC_GDPS_AirTemp_IsbL-0250_LatLon0.15_PT054H.grib2 2026-05-06 18:38 1.0M
20260506T12Z_MSC_GDPS_AirTemp_IsbL-0275_LatLon0.15_PT054H.grib2 2026-05-06 18:38 1.0M
20260506T12Z_MSC_GDPS_AirTemp_IsbL-0300_LatLon0.15_PT054H.grib2 2026-05-06 18:38 1.0M
20260506T12Z_MSC_GDPS_AirTemp_IsbL-0350_LatLon0.15_PT054H.grib2 2026-05-06 18:38 934K
20260506T12Z_MSC_GDPS_AirTemp_IsbL-0400_LatLon0.15_PT054H.grib2 2026-05-06 18:38 947K
20260506T12Z_MSC_GDPS_AirTemp_IsbL-0450_LatLon0.15_PT054H.grib2 2026-05-06 18:38 969K
20260506T12Z_MSC_GDPS_AirTemp_IsbL-0500_LatLon0.15_PT054H.grib2 2026-05-06 18:38 1.0M
20260506T12Z_MSC_GDPS_AirTemp_IsbL-0550_LatLon0.15_PT054H.grib2 2026-05-06 18:38 810K
20260506T12Z_MSC_GDPS_AirTemp_IsbL-0600_LatLon0.15_PT054H.grib2 2026-05-06 18:38 900K
20260506T12Z_MSC_GDPS_AirTemp_IsbL-0650_LatLon0.15_PT054H.grib2 2026-05-06 18:38 928K
20260506T12Z_MSC_GDPS_AirTemp_IsbL-0700_LatLon0.15_PT054H.grib2 2026-05-06 18:38 962K
20260506T12Z_MSC_GDPS_AirTemp_IsbL-0750_LatLon0.15_PT054H.grib2 2026-05-06 18:38 1.0M
20260506T12Z_MSC_GDPS_AirTemp_IsbL-0800_LatLon0.15_PT054H.grib2 2026-05-06 18:38 1.1M
20260506T12Z_MSC_GDPS_AirTemp_IsbL-0850_LatLon0.15_PT054H.grib2 2026-05-06 18:38 1.1M
20260506T12Z_MSC_GDPS_AirTemp_IsbL-0875_LatLon0.15_PT054H.grib2 2026-05-06 18:38 1.2M
20260506T12Z_MSC_GDPS_AirTemp_IsbL-0900_LatLon0.15_PT054H.grib2 2026-05-06 18:38 1.2M
20260506T12Z_MSC_GDPS_AirTemp_IsbL-0925_LatLon0.15_PT054H.grib2 2026-05-06 18:38 1.1M
20260506T12Z_MSC_GDPS_AirTemp_IsbL-0950_LatLon0.15_PT054H.grib2 2026-05-06 18:38 1.1M
20260506T12Z_MSC_GDPS_AirTemp_IsbL-0970_LatLon0.15_PT054H.grib2 2026-05-06 18:38 1.2M
20260506T12Z_MSC_GDPS_AirTemp_IsbL-0985_LatLon0.15_PT054H.grib2 2026-05-06 18:38 1.1M
20260506T12Z_MSC_GDPS_AirTemp_IsbL-1000_LatLon0.15_PT054H.grib2 2026-05-06 18:38 1.1M
20260506T12Z_MSC_GDPS_AirTemp_IsbL-1015_LatLon0.15_PT054H.grib2 2026-05-06 18:38 1.1M
20260506T12Z_MSC_GDPS_Albedo_Sfc_LatLon0.15_PT054H.grib2 2026-05-06 18:38 245K
20260506T12Z_MSC_GDPS_CAPE_Sfc_LatLon0.15_PT054H.grib2 2026-05-06 18:38 3.7M
20260506T12Z_MSC_GDPS_CIN_Sfc_LatLon0.15_PT054H.grib2 2026-05-06 18:38 2.8M
20260506T12Z_MSC_GDPS_CloudWater_EAtm_LatLon0.15_PT054H.grib2 2026-05-06 18:38 544K
20260506T12Z_MSC_GDPS_ConvectivePrecip-Accum_Sfc_LatLon0.15_PT054H.grib2 2026-05-06 18:38 2.8M
20260506T12Z_MSC_GDPS_DewPointDepression_AGL-2m_LatLon0.15_PT054H.grib2 2026-05-06 18:38 769K
20260506T12Z_MSC_GDPS_DewPointDepression_IsbL-0010_LatLon0.15_PT054H.grib2 2026-05-06 18:38 90K
20260506T12Z_MSC_GDPS_DewPointDepression_IsbL-0020_LatLon0.15_PT054H.grib2 2026-05-06 18:38 84K
20260506T12Z_MSC_GDPS_DewPointDepression_IsbL-0030_LatLon0.15_PT054H.grib2 2026-05-06 18:38 92K
20260506T12Z_MSC_GDPS_DewPointDepression_IsbL-0050_LatLon0.15_PT054H.grib2 2026-05-06 18:38 385K
20260506T12Z_MSC_GDPS_DewPointDepression_IsbL-0100_LatLon0.15_PT054H.grib2 2026-05-06 18:38 404K
20260506T12Z_MSC_GDPS_DewPointDepression_IsbL-0150_LatLon0.15_PT054H.grib2 2026-05-06 18:38 495K
20260506T12Z_MSC_GDPS_DewPointDepression_IsbL-0175_LatLon0.15_PT054H.grib2 2026-05-06 18:38 594K
20260506T12Z_MSC_GDPS_DewPointDepression_IsbL-0200_LatLon0.15_PT054H.grib2 2026-05-06 18:38 700K
20260506T12Z_MSC_GDPS_DewPointDepression_IsbL-0225_LatLon0.15_PT054H.grib2 2026-05-06 18:38 780K
20260506T12Z_MSC_GDPS_DewPointDepression_IsbL-0250_LatLon0.15_PT054H.grib2 2026-05-06 18:38 875K
20260506T12Z_MSC_GDPS_DewPointDepression_IsbL-0275_LatLon0.15_PT054H.grib2 2026-05-06 18:38 906K
20260506T12Z_MSC_GDPS_DewPointDepression_IsbL-0300_LatLon0.15_PT054H.grib2 2026-05-06 18:38 945K
20260506T12Z_MSC_GDPS_DewPointDepression_IsbL-0350_LatLon0.15_PT054H.grib2 2026-05-06 18:38 962K
20260506T12Z_MSC_GDPS_DewPointDepression_IsbL-0400_LatLon0.15_PT054H.grib2 2026-05-06 18:38 1.0M
20260506T12Z_MSC_GDPS_DewPointDepression_IsbL-0450_LatLon0.15_PT054H.grib2 2026-05-06 18:38 1.0M
20260506T12Z_MSC_GDPS_DewPointDepression_IsbL-0500_LatLon0.15_PT054H.grib2 2026-05-06 18:38 1.0M
20260506T12Z_MSC_GDPS_DewPointDepression_IsbL-0550_LatLon0.15_PT054H.grib2 2026-05-06 18:38 1.0M
20260506T12Z_MSC_GDPS_DewPointDepression_IsbL-0600_LatLon0.15_PT054H.grib2 2026-05-06 18:38 1.0M
20260506T12Z_MSC_GDPS_DewPointDepression_IsbL-0650_LatLon0.15_PT054H.grib2 2026-05-06 18:38 1.1M
20260506T12Z_MSC_GDPS_DewPointDepression_IsbL-0700_LatLon0.15_PT054H.grib2 2026-05-06 18:38 1.1M
20260506T12Z_MSC_GDPS_DewPointDepression_IsbL-0750_LatLon0.15_PT054H.grib2 2026-05-06 18:38 1.1M
20260506T12Z_MSC_GDPS_DewPointDepression_IsbL-0800_LatLon0.15_PT054H.grib2 2026-05-06 18:38 1.2M
20260506T12Z_MSC_GDPS_DewPointDepression_IsbL-0850_LatLon0.15_PT054H.grib2 2026-05-06 18:38 1.2M
20260506T12Z_MSC_GDPS_DewPointDepression_IsbL-0875_LatLon0.15_PT054H.grib2 2026-05-06 18:38 1.1M
20260506T12Z_MSC_GDPS_DewPointDepression_IsbL-0900_LatLon0.15_PT054H.grib2 2026-05-06 18:38 1.1M
20260506T12Z_MSC_GDPS_DewPointDepression_IsbL-0925_LatLon0.15_PT054H.grib2 2026-05-06 18:38 1.0M
20260506T12Z_MSC_GDPS_DewPointDepression_IsbL-0950_LatLon0.15_PT054H.grib2 2026-05-06 18:38 1.0M
20260506T12Z_MSC_GDPS_DewPointDepression_IsbL-0970_LatLon0.15_PT054H.grib2 2026-05-06 18:38 1.0M
20260506T12Z_MSC_GDPS_DewPointDepression_IsbL-0985_LatLon0.15_PT054H.grib2 2026-05-06 18:38 1.0M
20260506T12Z_MSC_GDPS_DewPointDepression_IsbL-1000_LatLon0.15_PT054H.grib2 2026-05-06 18:38 1.0M
20260506T12Z_MSC_GDPS_DewPointDepression_IsbL-1015_LatLon0.15_PT054H.grib2 2026-05-06 18:38 922K
20260506T12Z_MSC_GDPS_DewPoint_AGL-2m_LatLon0.15_PT054H.grib2 2026-05-06 18:38 614K
20260506T12Z_MSC_GDPS_DownwardLongwaveRadiationFlux-Accum_Sfc_LatLon0.15_PT054H.grib2 2026-05-06 18:38 849K
20260506T12Z_MSC_GDPS_DownwardShortwaveRadiationFlux-Accum_NTAtm_LatLon0.15_PT054H.grib2 2026-05-06 18:38 180K
20260506T12Z_MSC_GDPS_DownwardShortwaveRadiationFlux-Accum_Sfc_LatLon0.15_PT054H.grib2 2026-05-06 18:38 1.0M
20260506T12Z_MSC_GDPS_FreezingRain-Accum12h_Sfc_LatLon0.15_PT054H.grib2 2026-05-06 18:38 105K
20260506T12Z_MSC_GDPS_FreezingRain-Accum1h_Sfc_LatLon0.15_PT054H.grib2 2026-05-06 18:38 41K
20260506T12Z_MSC_GDPS_FreezingRain-Accum24h_Sfc_LatLon0.15_PT054H.grib2 2026-05-06 18:38 146K
20260506T12Z_MSC_GDPS_FreezingRain-Accum3h_Sfc_LatLon0.15_PT054H.grib2 2026-05-06 18:38 43K
20260506T12Z_MSC_GDPS_FreezingRain-Accum6h_Sfc_LatLon0.15_PT054H.grib2 2026-05-06 18:38 79K
20260506T12Z_MSC_GDPS_FreezingRain-Accum_Sfc_LatLon0.15_PT054H.grib2 2026-05-06 18:38 249K
20260506T12Z_MSC_GDPS_GeopotentialHeight_IsbL-0001_LatLon0.15_PT054H.grib2 2026-05-06 18:38 452K
20260506T12Z_MSC_GDPS_GeopotentialHeight_IsbL-0005_LatLon0.15_PT054H.grib2 2026-05-06 18:38 491K
20260506T12Z_MSC_GDPS_GeopotentialHeight_IsbL-0010_LatLon0.15_PT054H.grib2 2026-05-06 18:38 475K
20260506T12Z_MSC_GDPS_GeopotentialHeight_IsbL-0020_LatLon0.15_PT054H.grib2 2026-05-06 18:38 416K
20260506T12Z_MSC_GDPS_GeopotentialHeight_IsbL-0030_LatLon0.15_PT054H.grib2 2026-05-06 18:38 421K
20260506T12Z_MSC_GDPS_GeopotentialHeight_IsbL-0050_LatLon0.15_PT054H.grib2 2026-05-06 18:38 579K
20260506T12Z_MSC_GDPS_GeopotentialHeight_IsbL-0100_LatLon0.15_PT054H.grib2 2026-05-06 18:38 619K
20260506T12Z_MSC_GDPS_GeopotentialHeight_IsbL-0150_LatLon0.15_PT054H.grib2 2026-05-06 18:38 639K
20260506T12Z_MSC_GDPS_GeopotentialHeight_IsbL-0175_LatLon0.15_PT054H.grib2 2026-05-06 18:38 643K
20260506T12Z_MSC_GDPS_GeopotentialHeight_IsbL-0200_LatLon0.15_PT054H.grib2 2026-05-06 18:38 648K
20260506T12Z_MSC_GDPS_GeopotentialHeight_IsbL-0225_LatLon0.15_PT054H.grib2 2026-05-06 18:38 649K
20260506T12Z_MSC_GDPS_GeopotentialHeight_IsbL-0250_LatLon0.15_PT054H.grib2 2026-05-06 18:38 650K
20260506T12Z_MSC_GDPS_GeopotentialHeight_IsbL-0275_LatLon0.15_PT054H.grib2 2026-05-06 18:38 647K
20260506T12Z_MSC_GDPS_GeopotentialHeight_IsbL-0300_LatLon0.15_PT054H.grib2 2026-05-06 18:38 647K
20260506T12Z_MSC_GDPS_GeopotentialHeight_IsbL-0350_LatLon0.15_PT054H.grib2 2026-05-06 18:38 637K
20260506T12Z_MSC_GDPS_GeopotentialHeight_IsbL-0400_LatLon0.15_PT054H.grib2 2026-05-06 18:38 627K
20260506T12Z_MSC_GDPS_GeopotentialHeight_IsbL-0450_LatLon0.15_PT054H.grib2 2026-05-06 18:38 617K
20260506T12Z_MSC_GDPS_GeopotentialHeight_IsbL-0500_LatLon0.15_PT054H.grib2 2026-05-06 18:38 537K
20260506T12Z_MSC_GDPS_GeopotentialHeight_IsbL-0550_LatLon0.15_PT054H.grib2 2026-05-06 18:38 533K
20260506T12Z_MSC_GDPS_GeopotentialHeight_IsbL-0600_LatLon0.15_PT054H.grib2 2026-05-06 18:38 529K
20260506T12Z_MSC_GDPS_GeopotentialHeight_IsbL-0650_LatLon0.15_PT054H.grib2 2026-05-06 18:38 696K
20260506T12Z_MSC_GDPS_GeopotentialHeight_IsbL-0700_LatLon0.15_PT054H.grib2 2026-05-06 18:38 692K
20260506T12Z_MSC_GDPS_GeopotentialHeight_IsbL-0750_LatLon0.15_PT054H.grib2 2026-05-06 18:38 698K
20260506T12Z_MSC_GDPS_GeopotentialHeight_IsbL-0800_LatLon0.15_PT054H.grib2 2026-05-06 18:38 712K
20260506T12Z_MSC_GDPS_GeopotentialHeight_IsbL-0850_LatLon0.15_PT054H.grib2 2026-05-06 18:38 721K
20260506T12Z_MSC_GDPS_GeopotentialHeight_IsbL-0875_LatLon0.15_PT054H.grib2 2026-05-06 18:38 722K
20260506T12Z_MSC_GDPS_GeopotentialHeight_IsbL-0900_LatLon0.15_PT054H.grib2 2026-05-06 18:38 732K
20260506T12Z_MSC_GDPS_GeopotentialHeight_IsbL-0925_LatLon0.15_PT054H.grib2 2026-05-06 18:38 736K
20260506T12Z_MSC_GDPS_GeopotentialHeight_IsbL-0950_LatLon0.15_PT054H.grib2 2026-05-06 18:38 743K
20260506T12Z_MSC_GDPS_GeopotentialHeight_IsbL-0970_LatLon0.15_PT054H.grib2 2026-05-06 18:38 756K
20260506T12Z_MSC_GDPS_GeopotentialHeight_IsbL-0985_LatLon0.15_PT054H.grib2 2026-05-06 18:38 770K
20260506T12Z_MSC_GDPS_GeopotentialHeight_IsbL-1000_LatLon0.15_PT054H.grib2 2026-05-06 18:38 791K
20260506T12Z_MSC_GDPS_GeopotentialHeight_IsbL-1015_LatLon0.15_PT054H.grib2 2026-05-06 18:38 812K
20260506T12Z_MSC_GDPS_Humidex_Sfc_LatLon0.15_PT054H.grib2 2026-05-06 18:38 5.3M
20260506T12Z_MSC_GDPS_IcePellets-Accum12h_Sfc_LatLon0.15_PT054H.grib2 2026-05-06 18:38 23K
20260506T12Z_MSC_GDPS_IcePellets-Accum1h_Sfc_LatLon0.15_PT054H.grib2 2026-05-06 18:38 12K
20260506T12Z_MSC_GDPS_IcePellets-Accum24h_Sfc_LatLon0.15_PT054H.grib2 2026-05-06 18:38 33K
20260506T12Z_MSC_GDPS_IcePellets-Accum3h_Sfc_LatLon0.15_PT054H.grib2 2026-05-06 18:38 14K
20260506T12Z_MSC_GDPS_IcePellets-Accum6h_Sfc_LatLon0.15_PT054H.grib2 2026-05-06 18:38 18K
20260506T12Z_MSC_GDPS_IcePellets-Accum_Sfc_LatLon0.15_PT054H.grib2 2026-05-06 18:38 56K
20260506T12Z_MSC_GDPS_KIndex_Sfc_LatLon0.15_PT054H.grib2 2026-05-06 18:38 6.5M
20260506T12Z_MSC_GDPS_LatentHeatNetFlux_Sfc_LatLon0.15_PT054H.grib2 2026-05-06 18:38 702K
20260506T12Z_MSC_GDPS_LiftedIndex-MU-VT_IsbL-0500_LatLon0.15_PT054H.grib2 2026-05-06 18:38 5.4M
20260506T12Z_MSC_GDPS_NetLongwaveRadiationFlux-Accum_Sfc_LatLon0.15_PT054H.grib2 2026-05-06 18:38 1.2M
20260506T12Z_MSC_GDPS_NetShortwaveRadiationFlux-Accum_Sfc_LatLon0.15_PT054H.grib2 2026-05-06 18:38 1.0M
20260506T12Z_MSC_GDPS_O3MixingRatio_Sfc_LatLon0.15_PT054H.grib2 2026-05-06 18:20 2.0M
20260506T12Z_MSC_GDPS_O3_EAtm_LatLon0.15_PT054H.grib2 2026-05-06 18:20 2.5M
20260506T12Z_MSC_GDPS_PlanetaryBoundaryLayerHeight_Sfc_LatLon0.15_PT054H.grib2 2026-05-06 18:38 2.4M
20260506T12Z_MSC_GDPS_Precip-Accum12h_Sfc_LatLon0.15_PT054H.grib2 2026-05-06 18:38 4.1M
20260506T12Z_MSC_GDPS_Precip-Accum1h_Sfc_LatLon0.15_PT054H.grib2 2026-05-06 18:38 3.3M
20260506T12Z_MSC_GDPS_Precip-Accum24h_Sfc_LatLon0.15_PT054H.grib2 2026-05-06 18:38 4.3M
20260506T12Z_MSC_GDPS_Precip-Accum3h_Sfc_LatLon0.15_PT054H.grib2 2026-05-06 18:38 3.5M
20260506T12Z_MSC_GDPS_Precip-Accum6h_Sfc_LatLon0.15_PT054H.grib2 2026-05-06 18:38 3.6M
20260506T12Z_MSC_GDPS_Precip-Accum_Sfc_LatLon0.15_PT054H.grib2 2026-05-06 18:38 4.7M
20260506T12Z_MSC_GDPS_PrecipRate_Sfc_LatLon0.15_PT054H.grib2 2026-05-06 18:38 3.0M
20260506T12Z_MSC_GDPS_PrecipType-Instant_Sfc_LatLon0.15_PT054H.grib2 2026-05-06 18:38 1.6M
20260506T12Z_MSC_GDPS_Pressure_MSL_LatLon0.15_PT054H.grib2 2026-05-06 18:38 726K
20260506T12Z_MSC_GDPS_Pressure_PVU-1.5_LatLon0.15_PT054H.grib2 2026-05-06 18:38 5.8M
20260506T12Z_MSC_GDPS_Pressure_PVU-1_LatLon0.15_PT054H.grib2 2026-05-06 18:38 6.0M
20260506T12Z_MSC_GDPS_Pressure_PVU-2_LatLon0.15_PT054H.grib2 2026-05-06 18:38 5.6M
20260506T12Z_MSC_GDPS_Pressure_Sfc_LatLon0.15_PT054H.grib2 2026-05-06 18:38 1.1M
20260506T12Z_MSC_GDPS_RadiativeTemp_Sfc_LatLon0.15_PT054H.grib2 2026-05-06 18:38 661K
20260506T12Z_MSC_GDPS_Rain-Accum12h_Sfc_LatLon0.15_PT054H.grib2 2026-05-06 18:38 2.7M
20260506T12Z_MSC_GDPS_Rain-Accum1h_Sfc_LatLon0.15_PT054H.grib2 2026-05-06 18:38 1.7M
20260506T12Z_MSC_GDPS_Rain-Accum24h_Sfc_LatLon0.15_PT054H.grib2 2026-05-06 18:38 3.0M
20260506T12Z_MSC_GDPS_Rain-Accum3h_Sfc_LatLon0.15_PT054H.grib2 2026-05-06 18:38 1.7M
20260506T12Z_MSC_GDPS_Rain-Accum6h_Sfc_LatLon0.15_PT054H.grib2 2026-05-06 18:38 2.4M
20260506T12Z_MSC_GDPS_Rain-Accum_Sfc_LatLon0.15_PT054H.grib2 2026-05-06 18:38 3.6M
20260506T12Z_MSC_GDPS_RelativeHumidity_AGL-2m_LatLon0.15_PT054H.grib2 2026-05-06 18:38 1.1M
20260506T12Z_MSC_GDPS_RelativeHumidity_IsbL-0010_LatLon0.15_PT054H.grib2 2026-05-06 18:38 160K
20260506T12Z_MSC_GDPS_RelativeHumidity_IsbL-0020_LatLon0.15_PT054H.grib2 2026-05-06 18:38 177K
20260506T12Z_MSC_GDPS_RelativeHumidity_IsbL-0030_LatLon0.15_PT054H.grib2 2026-05-06 18:38 192K
20260506T12Z_MSC_GDPS_RelativeHumidity_IsbL-0050_LatLon0.15_PT054H.grib2 2026-05-06 18:38 339K
20260506T12Z_MSC_GDPS_RelativeHumidity_IsbL-0100_LatLon0.15_PT054H.grib2 2026-05-06 18:38 512K
20260506T12Z_MSC_GDPS_RelativeHumidity_IsbL-0150_LatLon0.15_PT054H.grib2 2026-05-06 18:38 688K
20260506T12Z_MSC_GDPS_RelativeHumidity_IsbL-0175_LatLon0.15_PT054H.grib2 2026-05-06 18:38 806K
20260506T12Z_MSC_GDPS_RelativeHumidity_IsbL-0200_LatLon0.15_PT054H.grib2 2026-05-06 18:38 716K
20260506T12Z_MSC_GDPS_RelativeHumidity_IsbL-0225_LatLon0.15_PT054H.grib2 2026-05-06 18:38 797K
20260506T12Z_MSC_GDPS_RelativeHumidity_IsbL-0250_LatLon0.15_PT054H.grib2 2026-05-06 18:38 865K
20260506T12Z_MSC_GDPS_RelativeHumidity_IsbL-0275_LatLon0.15_PT054H.grib2 2026-05-06 18:38 889K
20260506T12Z_MSC_GDPS_RelativeHumidity_IsbL-0300_LatLon0.15_PT054H.grib2 2026-05-06 18:38 930K
20260506T12Z_MSC_GDPS_RelativeHumidity_IsbL-0350_LatLon0.15_PT054H.grib2 2026-05-06 18:38 944K
20260506T12Z_MSC_GDPS_RelativeHumidity_IsbL-0400_LatLon0.15_PT054H.grib2 2026-05-06 18:38 962K
20260506T12Z_MSC_GDPS_RelativeHumidity_IsbL-0450_LatLon0.15_PT054H.grib2 2026-05-06 18:38 1.0M
20260506T12Z_MSC_GDPS_RelativeHumidity_IsbL-0500_LatLon0.15_PT054H.grib2 2026-05-06 18:38 1.0M
20260506T12Z_MSC_GDPS_RelativeHumidity_IsbL-0550_LatLon0.15_PT054H.grib2 2026-05-06 18:38 1.1M
20260506T12Z_MSC_GDPS_RelativeHumidity_IsbL-0600_LatLon0.15_PT054H.grib2 2026-05-06 18:38 1.1M
20260506T12Z_MSC_GDPS_RelativeHumidity_IsbL-0650_LatLon0.15_PT054H.grib2 2026-05-06 18:38 1.1M
20260506T12Z_MSC_GDPS_RelativeHumidity_IsbL-0700_LatLon0.15_PT054H.grib2 2026-05-06 18:38 1.1M
20260506T12Z_MSC_GDPS_RelativeHumidity_IsbL-0750_LatLon0.15_PT054H.grib2 2026-05-06 18:38 1.2M
20260506T12Z_MSC_GDPS_RelativeHumidity_IsbL-0800_LatLon0.15_PT054H.grib2 2026-05-06 18:38 1.3M
20260506T12Z_MSC_GDPS_RelativeHumidity_IsbL-0850_LatLon0.15_PT054H.grib2 2026-05-06 18:38 1.3M
20260506T12Z_MSC_GDPS_RelativeHumidity_IsbL-0875_LatLon0.15_PT054H.grib2 2026-05-06 18:38 1.3M
20260506T12Z_MSC_GDPS_RelativeHumidity_IsbL-0900_LatLon0.15_PT054H.grib2 2026-05-06 18:38 1.2M
20260506T12Z_MSC_GDPS_RelativeHumidity_IsbL-0925_LatLon0.15_PT054H.grib2 2026-05-06 18:38 1.2M
20260506T12Z_MSC_GDPS_RelativeHumidity_IsbL-0950_LatLon0.15_PT054H.grib2 2026-05-06 18:38 1.2M
20260506T12Z_MSC_GDPS_RelativeHumidity_IsbL-0970_LatLon0.15_PT054H.grib2 2026-05-06 18:38 1.2M
20260506T12Z_MSC_GDPS_RelativeHumidity_IsbL-0985_LatLon0.15_PT054H.grib2 2026-05-06 18:38 1.1M
20260506T12Z_MSC_GDPS_RelativeHumidity_IsbL-1000_LatLon0.15_PT054H.grib2 2026-05-06 18:38 1.1M
20260506T12Z_MSC_GDPS_RelativeHumidity_IsbL-1015_LatLon0.15_PT054H.grib2 2026-05-06 18:38 1.0M
20260506T12Z_MSC_GDPS_RelativeVorticity_IsbL-0200_LatLon0.15_PT054H.grib2 2026-05-06 18:38 1.5M
20260506T12Z_MSC_GDPS_RelativeVorticity_IsbL-0250_LatLon0.15_PT054H.grib2 2026-05-06 18:38 1.6M
20260506T12Z_MSC_GDPS_RelativeVorticity_IsbL-0500_LatLon0.15_PT054H.grib2 2026-05-06 18:38 1.5M
20260506T12Z_MSC_GDPS_RelativeVorticity_IsbL-0700_LatLon0.15_PT054H.grib2 2026-05-06 18:38 1.6M
20260506T12Z_MSC_GDPS_RelativeVorticity_IsbL-0850_LatLon0.15_PT054H.grib2 2026-05-06 18:38 1.6M
20260506T12Z_MSC_GDPS_Runoff-Accum_Sfc_LatLon0.15_PT054H.grib2 2026-05-06 18:38 95K
20260506T12Z_MSC_GDPS_SensibleHeatNetFlux_Sfc_LatLon0.15_PT054H.grib2 2026-05-06 18:38 472K
20260506T12Z_MSC_GDPS_ShowalterIndex_IsbL-0500_LatLon0.15_PT054H.grib2 2026-05-06 18:38 6.2M
20260506T12Z_MSC_GDPS_Snow-Accum12h_Sfc_LatLon0.15_PT054H.grib2 2026-05-06 18:38 1.4M
20260506T12Z_MSC_GDPS_Snow-Accum1h_Sfc_LatLon0.15_PT054H.grib2 2026-05-06 18:38 1.0M
20260506T12Z_MSC_GDPS_Snow-Accum24h_Sfc_LatLon0.15_PT054H.grib2 2026-05-06 18:38 1.5M
20260506T12Z_MSC_GDPS_Snow-Accum3h_Sfc_LatLon0.15_PT054H.grib2 2026-05-06 18:38 946K
20260506T12Z_MSC_GDPS_Snow-Accum6h_Sfc_LatLon0.15_PT054H.grib2 2026-05-06 18:38 1.3M
20260506T12Z_MSC_GDPS_Snow-Accum_Sfc_LatLon0.15_PT054H.grib2 2026-05-06 18:38 1.8M
20260506T12Z_MSC_GDPS_SnowDensity_Sfc_LatLon0.15_PT054H.grib2 2026-05-06 18:38 254K
20260506T12Z_MSC_GDPS_SnowDepth_Sfc_LatLon0.15_PT054H.grib2 2026-05-06 18:38 1.7M
20260506T12Z_MSC_GDPS_SoilTemp_DBS-0to10cm_LatLon0.15_PT054H.grib2 2026-05-06 18:38 507K
20260506T12Z_MSC_GDPS_SoilTemp_Sfc_LatLon0.15_PT054H.grib2 2026-05-06 18:38 575K
20260506T12Z_MSC_GDPS_SoilVolumetricIceContent_Sfc_LatLon0.15_PT054H.grib2 2026-05-06 18:38 182K
20260506T12Z_MSC_GDPS_SoilVolumetricWaterContent_DBS-0to10cm_LatLon0.15_PT054H.grib2 2026-05-06 18:38 596K
20260506T12Z_MSC_GDPS_SoilVolumetricWaterContent_DBS-0to1cm_LatLon0.15_PT054H.grib2 2026-05-06 18:38 652K
20260506T12Z_MSC_GDPS_SpecificHumidity_AGL-120m_LatLon0.15_PT054H.grib2 2026-05-06 18:38 1.1M
20260506T12Z_MSC_GDPS_SpecificHumidity_AGL-2m_LatLon0.15_PT054H.grib2 2026-05-06 18:38 1.2M
20260506T12Z_MSC_GDPS_SpecificHumidity_AGL-40m_LatLon0.15_PT054H.grib2 2026-05-06 18:38 1.1M
20260506T12Z_MSC_GDPS_SpecificHumidity_AGL-80m_LatLon0.15_PT054H.grib2 2026-05-06 18:38 1.1M
20260506T12Z_MSC_GDPS_SpecificHumidity_IsbL-0001_LatLon0.15_PT054H.grib2 2026-05-06 18:38 1.3M
20260506T12Z_MSC_GDPS_SpecificHumidity_IsbL-0005_LatLon0.15_PT054H.grib2 2026-05-06 18:38 1.2M
20260506T12Z_MSC_GDPS_SpecificHumidity_IsbL-0010_LatLon0.15_PT054H.grib2 2026-05-06 18:38 1.3M
20260506T12Z_MSC_GDPS_SpecificHumidity_IsbL-0020_LatLon0.15_PT054H.grib2 2026-05-06 18:38 1.3M
20260506T12Z_MSC_GDPS_SpecificHumidity_IsbL-0030_LatLon0.15_PT054H.grib2 2026-05-06 18:38 1.3M
20260506T12Z_MSC_GDPS_SpecificHumidity_IsbL-0050_LatLon0.15_PT054H.grib2 2026-05-06 18:38 1.3M
20260506T12Z_MSC_GDPS_SpecificHumidity_IsbL-0100_LatLon0.15_PT054H.grib2 2026-05-06 18:38 1.3M
20260506T12Z_MSC_GDPS_SpecificHumidity_IsbL-0150_LatLon0.15_PT054H.grib2 2026-05-06 18:38 1.3M
20260506T12Z_MSC_GDPS_SpecificHumidity_IsbL-0175_LatLon0.15_PT054H.grib2 2026-05-06 18:38 1.3M
20260506T12Z_MSC_GDPS_SpecificHumidity_IsbL-0200_LatLon0.15_PT054H.grib2 2026-05-06 18:38 1.3M
20260506T12Z_MSC_GDPS_SpecificHumidity_IsbL-0225_LatLon0.15_PT054H.grib2 2026-05-06 18:38 1.3M
20260506T12Z_MSC_GDPS_SpecificHumidity_IsbL-0250_LatLon0.15_PT054H.grib2 2026-05-06 18:38 1.5M
20260506T12Z_MSC_GDPS_SpecificHumidity_IsbL-0275_LatLon0.15_PT054H.grib2 2026-05-06 18:38 1.3M
20260506T12Z_MSC_GDPS_SpecificHumidity_IsbL-0300_LatLon0.15_PT054H.grib2 2026-05-06 18:38 1.3M
20260506T12Z_MSC_GDPS_SpecificHumidity_IsbL-0350_LatLon0.15_PT054H.grib2 2026-05-06 18:38 1.2M
20260506T12Z_MSC_GDPS_SpecificHumidity_IsbL-0400_LatLon0.15_PT054H.grib2 2026-05-06 18:38 1.5M
20260506T12Z_MSC_GDPS_SpecificHumidity_IsbL-0450_LatLon0.15_PT054H.grib2 2026-05-06 18:38 1.3M
20260506T12Z_MSC_GDPS_SpecificHumidity_IsbL-0500_LatLon0.15_PT054H.grib2 2026-05-06 18:38 1.4M
20260506T12Z_MSC_GDPS_SpecificHumidity_IsbL-0550_LatLon0.15_PT054H.grib2 2026-05-06 18:38 1.6M
20260506T12Z_MSC_GDPS_SpecificHumidity_IsbL-0600_LatLon0.15_PT054H.grib2 2026-05-06 18:38 1.7M
20260506T12Z_MSC_GDPS_SpecificHumidity_IsbL-0650_LatLon0.15_PT054H.grib2 2026-05-06 18:38 1.5M
20260506T12Z_MSC_GDPS_SpecificHumidity_IsbL-0700_LatLon0.15_PT054H.grib2 2026-05-06 18:38 1.6M
20260506T12Z_MSC_GDPS_SpecificHumidity_IsbL-0750_LatLon0.15_PT054H.grib2 2026-05-06 18:38 1.7M
20260506T12Z_MSC_GDPS_SpecificHumidity_IsbL-0800_LatLon0.15_PT054H.grib2 2026-05-06 18:38 1.9M
20260506T12Z_MSC_GDPS_SpecificHumidity_IsbL-0850_LatLon0.15_PT054H.grib2 2026-05-06 18:38 2.0M
20260506T12Z_MSC_GDPS_SpecificHumidity_IsbL-0875_LatLon0.15_PT054H.grib2 2026-05-06 18:38 2.0M
20260506T12Z_MSC_GDPS_SpecificHumidity_IsbL-0900_LatLon0.15_PT054H.grib2 2026-05-06 18:38 1.9M
20260506T12Z_MSC_GDPS_SpecificHumidity_IsbL-0925_LatLon0.15_PT054H.grib2 2026-05-06 18:38 1.6M
20260506T12Z_MSC_GDPS_SpecificHumidity_IsbL-0950_LatLon0.15_PT054H.grib2 2026-05-06 18:38 1.6M
20260506T12Z_MSC_GDPS_SpecificHumidity_IsbL-0970_LatLon0.15_PT054H.grib2 2026-05-06 18:38 1.6M
20260506T12Z_MSC_GDPS_SpecificHumidity_IsbL-0985_LatLon0.15_PT054H.grib2 2026-05-06 18:38 1.5M
20260506T12Z_MSC_GDPS_SpecificHumidity_IsbL-1000_LatLon0.15_PT054H.grib2 2026-05-06 18:38 1.5M
20260506T12Z_MSC_GDPS_SpecificHumidity_IsbL-1015_LatLon0.15_PT054H.grib2 2026-05-06 18:38 1.5M
20260506T12Z_MSC_GDPS_SpecificHumidity_Sfc_LatLon0.15_PT054H.grib2 2026-05-06 18:38 676K
20260506T12Z_MSC_GDPS_Thickness_IsbL-0850to0700_LatLon0.15_PT054H.grib2 2026-05-06 18:38 475K
20260506T12Z_MSC_GDPS_Thickness_IsbL-1000to0500_LatLon0.15_PT054H.grib2 2026-05-06 18:38 378K
20260506T12Z_MSC_GDPS_Thickness_IsbL-1000to0850_LatLon0.15_PT054H.grib2 2026-05-06 18:38 496K
20260506T12Z_MSC_GDPS_TotalCloudCover_Sfc_LatLon0.15_PT054H.grib2 2026-05-06 18:38 819K
20260506T12Z_MSC_GDPS_TotalTotalsIndex_Sfc_LatLon0.15_PT054H.grib2 2026-05-06 18:38 6.2M
20260506T12Z_MSC_GDPS_UVIndex-ClearSky-Max24h_Sfc_LatLon0.15_PT054H.grib2 2026-05-06 18:20 2.2M
20260506T12Z_MSC_GDPS_UVIndex-ClearSky_Sfc_LatLon0.15_PT054H.grib2 2026-05-06 18:20 1.0M
20260506T12Z_MSC_GDPS_UVIndex-Max24h_Sfc_LatLon0.15_PT054H.grib2 2026-05-06 18:20 3.2M
20260506T12Z_MSC_GDPS_UVIndex_Sfc_LatLon0.15_PT054H.grib2 2026-05-06 18:20 1.5M
20260506T12Z_MSC_GDPS_UpwardLongwaveRadiationFlux_NTAtm_LatLon0.15_PT054H.grib2 2026-05-06 18:38 833K
20260506T12Z_MSC_GDPS_VerticalVelocity_IsbL-0200_LatLon0.15_PT054H.grib2 2026-05-06 18:38 1.0M
20260506T12Z_MSC_GDPS_VerticalVelocity_IsbL-0250_LatLon0.15_PT054H.grib2 2026-05-06 18:38 864K
20260506T12Z_MSC_GDPS_VerticalVelocity_IsbL-0500_LatLon0.15_PT054H.grib2 2026-05-06 18:38 1.0M
20260506T12Z_MSC_GDPS_VerticalVelocity_IsbL-0600_LatLon0.15_PT054H.grib2 2026-05-06 18:38 1.1M
20260506T12Z_MSC_GDPS_VerticalVelocity_IsbL-0700_LatLon0.15_PT054H.grib2 2026-05-06 18:38 1.1M
20260506T12Z_MSC_GDPS_VerticalVelocity_IsbL-0850_LatLon0.15_PT054H.grib2 2026-05-06 18:38 1.3M
20260506T12Z_MSC_GDPS_WindChill_Sfc_LatLon0.15_PT054H.grib2 2026-05-06 18:38 5.3M
20260506T12Z_MSC_GDPS_WindDir_AGL-10m_LatLon0.15_PT054H.grib2 2026-05-06 18:38 1.3M
20260506T12Z_MSC_GDPS_WindDir_AGL-120m_LatLon0.15_PT054H.grib2 2026-05-06 18:38 1.3M
20260506T12Z_MSC_GDPS_WindDir_AGL-40m_LatLon0.15_PT054H.grib2 2026-05-06 18:38 1.4M
20260506T12Z_MSC_GDPS_WindDir_AGL-80m_LatLon0.15_PT054H.grib2 2026-05-06 18:38 1.4M
20260506T12Z_MSC_GDPS_WindDir_IsbL-0001_LatLon0.15_PT054H.grib2 2026-05-06 18:38 660K
20260506T12Z_MSC_GDPS_WindDir_IsbL-0005_LatLon0.15_PT054H.grib2 2026-05-06 18:38 839K
20260506T12Z_MSC_GDPS_WindDir_IsbL-0010_LatLon0.15_PT054H.grib2 2026-05-06 18:38 854K
20260506T12Z_MSC_GDPS_WindDir_IsbL-0020_LatLon0.15_PT054H.grib2 2026-05-06 18:38 947K
20260506T12Z_MSC_GDPS_WindDir_IsbL-0030_LatLon0.15_PT054H.grib2 2026-05-06 18:38 947K
20260506T12Z_MSC_GDPS_WindDir_IsbL-0050_LatLon0.15_PT054H.grib2 2026-05-06 18:38 972K
20260506T12Z_MSC_GDPS_WindDir_IsbL-0100_LatLon0.15_PT054H.grib2 2026-05-06 18:38 1.0M
20260506T12Z_MSC_GDPS_WindDir_IsbL-0150_LatLon0.15_PT054H.grib2 2026-05-06 18:38 1.0M
20260506T12Z_MSC_GDPS_WindDir_IsbL-0175_LatLon0.15_PT054H.grib2 2026-05-06 18:38 1.1M
20260506T12Z_MSC_GDPS_WindDir_IsbL-0200_LatLon0.15_PT054H.grib2 2026-05-06 18:38 1.1M
20260506T12Z_MSC_GDPS_WindDir_IsbL-0225_LatLon0.15_PT054H.grib2 2026-05-06 18:38 1.1M
20260506T12Z_MSC_GDPS_WindDir_IsbL-0250_LatLon0.15_PT054H.grib2 2026-05-06 18:38 1.1M
20260506T12Z_MSC_GDPS_WindDir_IsbL-0275_LatLon0.15_PT054H.grib2 2026-05-06 18:38 1.2M
20260506T12Z_MSC_GDPS_WindDir_IsbL-0300_LatLon0.15_PT054H.grib2 2026-05-06 18:38 1.2M
20260506T12Z_MSC_GDPS_WindDir_IsbL-0350_LatLon0.15_PT054H.grib2 2026-05-06 18:38 1.2M
20260506T12Z_MSC_GDPS_WindDir_IsbL-0400_LatLon0.15_PT054H.grib2 2026-05-06 18:38 1.3M
20260506T12Z_MSC_GDPS_WindDir_IsbL-0450_LatLon0.15_PT054H.grib2 2026-05-06 18:38 1.3M
20260506T12Z_MSC_GDPS_WindDir_IsbL-0500_LatLon0.15_PT054H.grib2 2026-05-06 18:38 1.3M
20260506T12Z_MSC_GDPS_WindDir_IsbL-0550_LatLon0.15_PT054H.grib2 2026-05-06 18:38 1.4M
20260506T12Z_MSC_GDPS_WindDir_IsbL-0600_LatLon0.15_PT054H.grib2 2026-05-06 18:38 1.4M
20260506T12Z_MSC_GDPS_WindDir_IsbL-0650_LatLon0.15_PT054H.grib2 2026-05-06 18:38 1.5M
20260506T12Z_MSC_GDPS_WindDir_IsbL-0700_LatLon0.15_PT054H.grib2 2026-05-06 18:38 1.6M
20260506T12Z_MSC_GDPS_WindDir_IsbL-0750_LatLon0.15_PT054H.grib2 2026-05-06 18:38 1.7M
20260506T12Z_MSC_GDPS_WindDir_IsbL-0800_LatLon0.15_PT054H.grib2 2026-05-06 18:38 1.8M
20260506T12Z_MSC_GDPS_WindDir_IsbL-0850_LatLon0.15_PT054H.grib2 2026-05-06 18:38 1.9M
20260506T12Z_MSC_GDPS_WindDir_IsbL-0875_LatLon0.15_PT054H.grib2 2026-05-06 18:38 1.9M
20260506T12Z_MSC_GDPS_WindDir_IsbL-0900_LatLon0.15_PT054H.grib2 2026-05-06 18:38 1.9M
20260506T12Z_MSC_GDPS_WindDir_IsbL-0925_LatLon0.15_PT054H.grib2 2026-05-06 18:38 2.0M
20260506T12Z_MSC_GDPS_WindDir_IsbL-0950_LatLon0.15_PT054H.grib2 2026-05-06 18:38 2.0M
20260506T12Z_MSC_GDPS_WindDir_IsbL-0970_LatLon0.15_PT054H.grib2 2026-05-06 18:38 2.0M
20260506T12Z_MSC_GDPS_WindDir_IsbL-0985_LatLon0.15_PT054H.grib2 2026-05-06 18:38 2.0M
20260506T12Z_MSC_GDPS_WindDir_IsbL-1000_LatLon0.15_PT054H.grib2 2026-05-06 18:38 2.0M
20260506T12Z_MSC_GDPS_WindDir_IsbL-1015_LatLon0.15_PT054H.grib2 2026-05-06 18:38 2.0M
20260506T12Z_MSC_GDPS_WindGust-Max_AGL-10m_LatLon0.15_PT054H.grib2 2026-05-06 18:38 2.2M
20260506T12Z_MSC_GDPS_WindGust-Min_AGL-10m_LatLon0.15_PT054H.grib2 2026-05-06 18:38 2.2M
20260506T12Z_MSC_GDPS_WindGust_AGL-10m_LatLon0.15_PT054H.grib2 2026-05-06 18:38 2.2M
20260506T12Z_MSC_GDPS_WindSpeed_AGL-10m_LatLon0.15_PT054H.grib2 2026-05-06 18:38 1.1M
20260506T12Z_MSC_GDPS_WindSpeed_AGL-120m_LatLon0.15_PT054H.grib2 2026-05-06 18:38 1.3M
20260506T12Z_MSC_GDPS_WindSpeed_AGL-40m_LatLon0.15_PT054H.grib2 2026-05-06 18:38 1.2M
20260506T12Z_MSC_GDPS_WindSpeed_AGL-80m_LatLon0.15_PT054H.grib2 2026-05-06 18:38 1.3M
20260506T12Z_MSC_GDPS_WindSpeed_IsbL-0001_LatLon0.15_PT054H.grib2 2026-05-06 18:38 654K
20260506T12Z_MSC_GDPS_WindSpeed_IsbL-0005_LatLon0.15_PT054H.grib2 2026-05-06 18:38 705K
20260506T12Z_MSC_GDPS_WindSpeed_IsbL-0010_LatLon0.15_PT054H.grib2 2026-05-06 18:38 636K
20260506T12Z_MSC_GDPS_WindSpeed_IsbL-0020_LatLon0.15_PT054H.grib2 2026-05-06 18:38 672K
20260506T12Z_MSC_GDPS_WindSpeed_IsbL-0030_LatLon0.15_PT054H.grib2 2026-05-06 18:38 876K
20260506T12Z_MSC_GDPS_WindSpeed_IsbL-0050_LatLon0.15_PT054H.grib2 2026-05-06 18:38 908K
20260506T12Z_MSC_GDPS_WindSpeed_IsbL-0100_LatLon0.15_PT054H.grib2 2026-05-06 18:38 1.1M
20260506T12Z_MSC_GDPS_WindSpeed_IsbL-0150_LatLon0.15_PT054H.grib2 2026-05-06 18:38 1.0M
20260506T12Z_MSC_GDPS_WindSpeed_IsbL-0175_LatLon0.15_PT054H.grib2 2026-05-06 18:38 1.0M
20260506T12Z_MSC_GDPS_WindSpeed_IsbL-0200_LatLon0.15_PT054H.grib2 2026-05-06 18:38 1.1M
20260506T12Z_MSC_GDPS_WindSpeed_IsbL-0225_LatLon0.15_PT054H.grib2 2026-05-06 18:38 1.1M
20260506T12Z_MSC_GDPS_WindSpeed_IsbL-0250_LatLon0.15_PT054H.grib2 2026-05-06 18:38 1.1M
20260506T12Z_MSC_GDPS_WindSpeed_IsbL-0275_LatLon0.15_PT054H.grib2 2026-05-06 18:38 1.1M
20260506T12Z_MSC_GDPS_WindSpeed_IsbL-0300_LatLon0.15_PT054H.grib2 2026-05-06 18:38 1.1M
20260506T12Z_MSC_GDPS_WindSpeed_IsbL-0350_LatLon0.15_PT054H.grib2 2026-05-06 18:38 1.1M
20260506T12Z_MSC_GDPS_WindSpeed_IsbL-0400_LatLon0.15_PT054H.grib2 2026-05-06 18:38 1.1M
20260506T12Z_MSC_GDPS_WindSpeed_IsbL-0450_LatLon0.15_PT054H.grib2 2026-05-06 18:38 1.1M
20260506T12Z_MSC_GDPS_WindSpeed_IsbL-0500_LatLon0.15_PT054H.grib2 2026-05-06 18:38 1.1M
20260506T12Z_MSC_GDPS_WindSpeed_IsbL-0550_LatLon0.15_PT054H.grib2 2026-05-06 18:38 1.1M
20260506T12Z_MSC_GDPS_WindSpeed_IsbL-0600_LatLon0.15_PT054H.grib2 2026-05-06 18:38 1.1M
20260506T12Z_MSC_GDPS_WindSpeed_IsbL-0650_LatLon0.15_PT054H.grib2 2026-05-06 18:38 1.5M
20260506T12Z_MSC_GDPS_WindSpeed_IsbL-0700_LatLon0.15_PT054H.grib2 2026-05-06 18:38 1.5M
20260506T12Z_MSC_GDPS_WindSpeed_IsbL-0750_LatLon0.15_PT054H.grib2 2026-05-06 18:38 1.6M
20260506T12Z_MSC_GDPS_WindSpeed_IsbL-0800_LatLon0.15_PT054H.grib2 2026-05-06 18:38 1.7M
20260506T12Z_MSC_GDPS_WindSpeed_IsbL-0850_LatLon0.15_PT054H.grib2 2026-05-06 18:38 1.8M
20260506T12Z_MSC_GDPS_WindSpeed_IsbL-0875_LatLon0.15_PT054H.grib2 2026-05-06 18:38 1.8M
20260506T12Z_MSC_GDPS_WindSpeed_IsbL-0900_LatLon0.15_PT054H.grib2 2026-05-06 18:38 1.8M
20260506T12Z_MSC_GDPS_WindSpeed_IsbL-0925_LatLon0.15_PT054H.grib2 2026-05-06 18:38 1.9M
20260506T12Z_MSC_GDPS_WindSpeed_IsbL-0950_LatLon0.15_PT054H.grib2 2026-05-06 18:38 1.9M
20260506T12Z_MSC_GDPS_WindSpeed_IsbL-0970_LatLon0.15_PT054H.grib2 2026-05-06 18:38 1.9M
20260506T12Z_MSC_GDPS_WindSpeed_IsbL-0985_LatLon0.15_PT054H.grib2 2026-05-06 18:38 1.9M
20260506T12Z_MSC_GDPS_WindSpeed_IsbL-1000_LatLon0.15_PT054H.grib2 2026-05-06 18:38 1.9M
20260506T12Z_MSC_GDPS_WindSpeed_IsbL-1015_LatLon0.15_PT054H.grib2 2026-05-06 18:38 1.8M
20260506T12Z_MSC_GDPS_WindU_AGL-10m_LatLon0.15_PT054H.grib2 2026-05-06 18:38 1.3M
20260506T12Z_MSC_GDPS_WindU_AGL-120m_LatLon0.15_PT054H.grib2 2026-05-06 18:38 1.0M
20260506T12Z_MSC_GDPS_WindU_AGL-40m_LatLon0.15_PT054H.grib2 2026-05-06 18:38 971K
20260506T12Z_MSC_GDPS_WindU_AGL-80m_LatLon0.15_PT054H.grib2 2026-05-06 18:38 1.0M
20260506T12Z_MSC_GDPS_WindU_IsbL-0001_LatLon0.15_PT054H.grib2 2026-05-06 18:38 510K
20260506T12Z_MSC_GDPS_WindU_IsbL-0005_LatLon0.15_PT054H.grib2 2026-05-06 18:38 702K
20260506T12Z_MSC_GDPS_WindU_IsbL-0010_LatLon0.15_PT054H.grib2 2026-05-06 18:38 710K
20260506T12Z_MSC_GDPS_WindU_IsbL-0020_LatLon0.15_PT054H.grib2 2026-05-06 18:38 737K
20260506T12Z_MSC_GDPS_WindU_IsbL-0030_LatLon0.15_PT054H.grib2 2026-05-06 18:38 749K
20260506T12Z_MSC_GDPS_WindU_IsbL-0050_LatLon0.15_PT054H.grib2 2026-05-06 18:38 770K
20260506T12Z_MSC_GDPS_WindU_IsbL-0100_LatLon0.15_PT054H.grib2 2026-05-06 18:38 927K
20260506T12Z_MSC_GDPS_WindU_IsbL-0150_LatLon0.15_PT054H.grib2 2026-05-06 18:38 1.0M
20260506T12Z_MSC_GDPS_WindU_IsbL-0175_LatLon0.15_PT054H.grib2 2026-05-06 18:38 1.0M
20260506T12Z_MSC_GDPS_WindU_IsbL-0200_LatLon0.15_PT054H.grib2 2026-05-06 18:38 847K
20260506T12Z_MSC_GDPS_WindU_IsbL-0225_LatLon0.15_PT054H.grib2 2026-05-06 18:38 855K
20260506T12Z_MSC_GDPS_WindU_IsbL-0250_LatLon0.15_PT054H.grib2 2026-05-06 18:38 914K
20260506T12Z_MSC_GDPS_WindU_IsbL-0275_LatLon0.15_PT054H.grib2 2026-05-06 18:38 879K
20260506T12Z_MSC_GDPS_WindU_IsbL-0300_LatLon0.15_PT054H.grib2 2026-05-06 18:38 870K
20260506T12Z_MSC_GDPS_WindU_IsbL-0350_LatLon0.15_PT054H.grib2 2026-05-06 18:38 888K
20260506T12Z_MSC_GDPS_WindU_IsbL-0400_LatLon0.15_PT054H.grib2 2026-05-06 18:38 1.1M
20260506T12Z_MSC_GDPS_WindU_IsbL-0450_LatLon0.15_PT054H.grib2 2026-05-06 18:38 1.1M
20260506T12Z_MSC_GDPS_WindU_IsbL-0500_LatLon0.15_PT054H.grib2 2026-05-06 18:38 1.1M
20260506T12Z_MSC_GDPS_WindU_IsbL-0550_LatLon0.15_PT054H.grib2 2026-05-06 18:38 1.1M
20260506T12Z_MSC_GDPS_WindU_IsbL-0600_LatLon0.15_PT054H.grib2 2026-05-06 18:38 1.2M
20260506T12Z_MSC_GDPS_WindU_IsbL-0650_LatLon0.15_PT054H.grib2 2026-05-06 18:38 1.2M
20260506T12Z_MSC_GDPS_WindU_IsbL-0700_LatLon0.15_PT054H.grib2 2026-05-06 18:38 1.2M
20260506T12Z_MSC_GDPS_WindU_IsbL-0750_LatLon0.15_PT054H.grib2 2026-05-06 18:38 1.3M
20260506T12Z_MSC_GDPS_WindU_IsbL-0800_LatLon0.15_PT054H.grib2 2026-05-06 18:38 1.4M
20260506T12Z_MSC_GDPS_WindU_IsbL-0850_LatLon0.15_PT054H.grib2 2026-05-06 18:38 1.4M
20260506T12Z_MSC_GDPS_WindU_IsbL-0875_LatLon0.15_PT054H.grib2 2026-05-06 18:38 1.5M
20260506T12Z_MSC_GDPS_WindU_IsbL-0900_LatLon0.15_PT054H.grib2 2026-05-06 18:38 1.5M
20260506T12Z_MSC_GDPS_WindU_IsbL-0925_LatLon0.15_PT054H.grib2 2026-05-06 18:38 1.5M
20260506T12Z_MSC_GDPS_WindU_IsbL-0950_LatLon0.15_PT054H.grib2 2026-05-06 18:38 1.4M
20260506T12Z_MSC_GDPS_WindU_IsbL-0970_LatLon0.15_PT054H.grib2 2026-05-06 18:38 1.4M
20260506T12Z_MSC_GDPS_WindU_IsbL-0985_LatLon0.15_PT054H.grib2 2026-05-06 18:38 1.4M
20260506T12Z_MSC_GDPS_WindU_IsbL-1000_LatLon0.15_PT054H.grib2 2026-05-06 18:38 1.4M
20260506T12Z_MSC_GDPS_WindU_IsbL-1015_LatLon0.15_PT054H.grib2 2026-05-06 18:38 1.3M
20260506T12Z_MSC_GDPS_WindV_AGL-10m_LatLon0.15_PT054H.grib2 2026-05-06 18:38 1.3M
20260506T12Z_MSC_GDPS_WindV_AGL-120m_LatLon0.15_PT054H.grib2 2026-05-06 18:38 1.0M
20260506T12Z_MSC_GDPS_WindV_AGL-40m_LatLon0.15_PT054H.grib2 2026-05-06 18:38 972K
20260506T12Z_MSC_GDPS_WindV_AGL-80m_LatLon0.15_PT054H.grib2 2026-05-06 18:38 1.0M
20260506T12Z_MSC_GDPS_WindV_IsbL-0001_LatLon0.15_PT054H.grib2 2026-05-06 18:38 793K
20260506T12Z_MSC_GDPS_WindV_IsbL-0005_LatLon0.15_PT054H.grib2 2026-05-06 18:38 873K
20260506T12Z_MSC_GDPS_WindV_IsbL-0010_LatLon0.15_PT054H.grib2 2026-05-06 18:38 896K
20260506T12Z_MSC_GDPS_WindV_IsbL-0020_LatLon0.15_PT054H.grib2 2026-05-06 18:38 856K
20260506T12Z_MSC_GDPS_WindV_IsbL-0030_LatLon0.15_PT054H.grib2 2026-05-06 18:38 865K
20260506T12Z_MSC_GDPS_WindV_IsbL-0050_LatLon0.15_PT054H.grib2 2026-05-06 18:38 1.0M
20260506T12Z_MSC_GDPS_WindV_IsbL-0100_LatLon0.15_PT054H.grib2 2026-05-06 18:38 859K
20260506T12Z_MSC_GDPS_WindV_IsbL-0150_LatLon0.15_PT054H.grib2 2026-05-06 18:38 1.0M
20260506T12Z_MSC_GDPS_WindV_IsbL-0175_LatLon0.15_PT054H.grib2 2026-05-06 18:38 820K
20260506T12Z_MSC_GDPS_WindV_IsbL-0200_LatLon0.15_PT054H.grib2 2026-05-06 18:38 848K
20260506T12Z_MSC_GDPS_WindV_IsbL-0225_LatLon0.15_PT054H.grib2 2026-05-06 18:38 913K
20260506T12Z_MSC_GDPS_WindV_IsbL-0250_LatLon0.15_PT054H.grib2 2026-05-06 18:38 913K
20260506T12Z_MSC_GDPS_WindV_IsbL-0275_LatLon0.15_PT054H.grib2 2026-05-06 18:38 936K
20260506T12Z_MSC_GDPS_WindV_IsbL-0300_LatLon0.15_PT054H.grib2 2026-05-06 18:38 926K
20260506T12Z_MSC_GDPS_WindV_IsbL-0350_LatLon0.15_PT054H.grib2 2026-05-06 18:38 940K
20260506T12Z_MSC_GDPS_WindV_IsbL-0400_LatLon0.15_PT054H.grib2 2026-05-06 18:38 884K
20260506T12Z_MSC_GDPS_WindV_IsbL-0450_LatLon0.15_PT054H.grib2 2026-05-06 18:38 886K
20260506T12Z_MSC_GDPS_WindV_IsbL-0500_LatLon0.15_PT054H.grib2 2026-05-06 18:38 892K
20260506T12Z_MSC_GDPS_WindV_IsbL-0550_LatLon0.15_PT054H.grib2 2026-05-06 18:38 1.1M
20260506T12Z_MSC_GDPS_WindV_IsbL-0600_LatLon0.15_PT054H.grib2 2026-05-06 18:38 1.1M
20260506T12Z_MSC_GDPS_WindV_IsbL-0650_LatLon0.15_PT054H.grib2 2026-05-06 18:38 1.2M
20260506T12Z_MSC_GDPS_WindV_IsbL-0700_LatLon0.15_PT054H.grib2 2026-05-06 18:38 1.2M
20260506T12Z_MSC_GDPS_WindV_IsbL-0750_LatLon0.15_PT054H.grib2 2026-05-06 18:38 1.3M
20260506T12Z_MSC_GDPS_WindV_IsbL-0800_LatLon0.15_PT054H.grib2 2026-05-06 18:38 1.4M
20260506T12Z_MSC_GDPS_WindV_IsbL-0850_LatLon0.15_PT054H.grib2 2026-05-06 18:38 1.4M
20260506T12Z_MSC_GDPS_WindV_IsbL-0875_LatLon0.15_PT054H.grib2 2026-05-06 18:38 1.5M
20260506T12Z_MSC_GDPS_WindV_IsbL-0900_LatLon0.15_PT054H.grib2 2026-05-06 18:38 1.5M
20260506T12Z_MSC_GDPS_WindV_IsbL-0925_LatLon0.15_PT054H.grib2 2026-05-06 18:38 1.5M
20260506T12Z_MSC_GDPS_WindV_IsbL-0950_LatLon0.15_PT054H.grib2 2026-05-06 18:38 1.4M
20260506T12Z_MSC_GDPS_WindV_IsbL-0970_LatLon0.15_PT054H.grib2 2026-05-06 18:38 1.4M
20260506T12Z_MSC_GDPS_WindV_IsbL-0985_LatLon0.15_PT054H.grib2 2026-05-06 18:38 1.4M
20260506T12Z_MSC_GDPS_WindV_IsbL-1000_LatLon0.15_PT054H.grib2 2026-05-06 18:38 1.4M
20260506T12Z_MSC_GDPS_WindV_IsbL-1015_LatLon0.15_PT054H.grib2 2026-05-06 18:38 1.3M